Wind_Speed
11 11 11 11 11 10 10 10 9 9 10 11 11 12 12 11 10 11 11 10 10 9 8 8 8 8 8 9 9 9 9 9 10 11 12 13 13 13 13 13 14 14 14 14 15 14 15 15 14 14 15 15 16 17 17 16 17 18 18 18 18 18 18
12 12 12 11 11 11 11 11 11 10 10 11 11 11 12 11 11 11 11 11 11 10 10 9 9 9 9 9 10 11 11 11 12 13 13 14 14 14 14 15 15 15 16 16 16 15 15 15 15 15 15 15 16 17 17 17 17 18 18 19 19 18 18
13 13 13 12 11 12 12 12 12 12 12 12 12 12 13 12 12 12 12 12 12 11 11 11 10 10 10 10 11 12 13 13 14 14 15 15 16 16 16 17 17 17 17 17 17 16 16 16 16 17 16 16 16 16 17 17 18 19 19 20 20 19 19
14 14 14 13 12 13 13 13 14 15 14 13 13 14 14 14 14 14 14 14 14 13 12 12 12 12 12 12 12 13 14 15 16 16 16 17 17 18 18 18 18 19 19 19 18 17 17 17 17 18 19 18 17 17 17 18 19 20 21 21 22 21 21
15 14 14 14 13 14 14 15 16 16 16 16 15 15 16 16 16 16 16 16 16 16 15 14 14 14 14 13 13 14 14 15 17 17 18 18 19 19 20 20 20 21 21 21 20 19 19 19 19 19 20 19 18 19 19 19 20 21 22 23 23 23 23
15 15 14 14 15 15 16 16 16 16 17 17 17 17 17 18 18 17 17 17 17 17 17 17 17 17 17 16 15 15 16 17 17 18 18 19 20 21 22 22 22 22 23 22 22 22 21 21 20 21 21 21 20 20 20 21 21 21 22 24 24 24 24
15 15 14 15 16 16 17 17 16 16 16 17 18 18 19 19 19 19 18 18 19 19 18 18 19 19 20 19 18 17 17 18 18 19 19 20 21 22 23 23 23 24 24 25 24 24 23 23 23 23 23 23 22 21 21 21 21 22 22 24 25 25 26
16 16 15 16 16 16 16 16 16 16 17 18 19 20 21 21 21 20 19 19 20 20 20 19 19 20 21 21 21 20 19 19 20 20 21 21 22 23 24 25 25 26 26 26 26 26 26 26 25 25 25 24 24 24 23 22 21 22 23 23 24 25 27
16 17 16 16 16 15 15 16 16 17 18 19 20 21 22 22 22 21 21 20 20 21 21 20 19 19 21 21 22 22 22 21 21 21 22 23 23 24 24 26 27 28 28 29 29 29 28 28 28 27 27 27 26 26 25 24 23 23 24 24 24 25 26
16 17 17 16 15 15 15 16 17 18 19 20 20 21 22 22 23 23 22 21 21 21 21 21 21 20 21 21 22 22 23 23 23 23 23 24 25 25 26 27 28 29 30 30 31 31 31 31 31 30 30 29 29 28 28 27 26 27 27 26 26 26 27
15 16 17 17 16 15 16 17 18 19 19 19 19 20 21 22 24 25 25 24 24 23 22 22 22 21 21 21 21 22 22 23 24 24 25 25 26 26 26 27 28 30 31 32 32 33 33 34 34 34 34 33 32 31 30 29 28 30 32 31 29 30 30
14 16 17 17 16 16 16 18 18 18 18 18 19 20 21 22 24 25 26 26 26 25 24 23 23 22 22 22 21 21 22 22 23 24 25 26 27 27 28 29 30 31 32 32 33 34 35 35 36 36 36 36 36 35 34 33 30 32 36 35 34 33 33
13 16 17 16 16 16 16 17 17 18 18 18 18 19 21 22 23 24 25 25 25 24 24 24 24 23 22 21 21 21 21 21 22 23 24 25 26 27 29 30 31 32 33 33 34 35 36 37 38 38 38 38 38 38 38 37 33 33 37 39 37 37 38
11 12 13 13 14 15 16 15 16 17 18 18 19 19 20 20 21 22 22 22 22 22 22 23 23 23 22 21 21 21 21 22 22 23 24 25 25 27 28 30 31 33 34 34 35 36 37 38 39 39 40 39 40 40 40 39 36 34 37 40 40 40 41
9 11 11 12 13 14 15 16 16 17 18 18 19 20 19 19 20 20 20 20 20 20 21 21 22 22 22 22 21 21 22 22 23 23 23 24 24 25 27 29 32 35 35 35 36 37 38 39 40 40 41 41 41 41 41 41 39 36 36 39 42 41 42
8 10 10 11 13 14 14 14 14 14 15 16 18 20 20 20 19 19 19 19 19 19 19 19 20 20 21 22 22 22 22 23 24 24 23 23 23 24 25 28 30 33 35 37 39 40 40 40 41 41 41 41 41 41 42 42 41 39 37 37 40 42 43
8 9 9 11 12 13 12 13 14 14 14 15 17 18 19 19 19 19 20 20 19 18 17 17 17 17 18 20 21 22 22 22 23 24 23 23 23 24 25 26 25 26 28 32 36 39 41 42 42 42 42 42 42 41 42 43 43 42 41 38 39 42 44
9 9 10 11 12 12 12 12 13 14 14 14 16 17 18 18 19 19 19 20 20 19 18 17 16 16 17 18 20 21 21 21 22 22 23 23 23 25 26 25 24 24 24 26 28 30 34 38 41 42 42 42 43 43 43 43 44 44 43 41 39 41 43
11 11 11 12 13 13 13 13 14 14 15 15 16 17 17 17 18 18 18 19 20 20 19 18 18 18 18 19 20 21 21 22 22 23 23 23 24 25 26 26 25 26 25 25 25 25 26 28 32 37 41 42 43 44 43 43 44 45 44 43 41 40 42
13 13 13 13 13 14 14 15 15 15 16 17 17 17 17 17 18 18 18 19 21 20 19 19 20 20 21 20 21 22 22 23 23 23 24 24 25 25 26 26 26 26 26 25 25 25 24 23 25 29 34 37 40 42 44 45 46 47 46 44 42 40 40
14 14 15 15 14 15 16 15 15 16 17 19 19 17 17 17 18 19 20 20 21 22 21 21 22 22 22 22 22 23 23 24 25 25 25 26 26 26 27 27 27 26 26 26 25 25 24 23 24 25 27 30 32 35 39 42 43 45 46 46 44 42 41
15 15 15 16 16 16 16 16 16 17 19 20 20 19 18 19 19 20 21 21 21 23 23 24 24 24 23 23 23 24 25 26 26 26 26 27 27 27 28 28 28 27 26 26 25 25 25 25 25 25 26 27 27 28 32 35 37 38 39 40 41 41 41
15 16 16 17 17 17 17 17 17 19 20 21 21 22 21 21 21 21 22 22 22 23 24 25 25 25 25 25 24 25 25 26 26 26 27 27 28 28 28 28 28 28 26 25 25 25 25 26 26 27 27 28 28 27 28 30 30 30 30 30 31 33 35
15 16 17 17 18 19 19 20 20 21 22 23 23 24 24 23 23 23 23 23 24 24 25 26 26 26 26 26 26 26 26 26 27 27 28 28 28 28 27 27 27 28 27 26 26 26 26 26 27 28 28 29 29 28 28 28 28 28 29 29 29 30 32
17 18 19 20 20 21 22 23 24 24 24 24 24 25 25 25 25 24 24 25 25 26 26 26 27 27 27 27 27 27 27 27 27 28 28 27 27 27 26 26 26 27 28 28 29 28 28 29 29 29 30 30 30 29 29 30 30 30 30 30 30 31 33
19 20 21 22 23 24 24 25 25 25 25 25 25 26 26 25 25 25 25 25 25 26 26 26 26 26 26 27 27 26 27 26 26 25 25 25 24 24 23 23 22 23 24 25 26 27 27 28 29 30 31 31 31 31 31 32 32 32 32 32 32 32 33
20 21 22 23 24 25 25 26 26 26 26 26 25 25 25 25 25 25 25 25 25 25 25 25 25 25 24 24 24 23 23 22 22 22 21 21 21 21 21 21 21 21 21 22 22 23 24 24 25 26 27 28 29 30 31 32 33 33 34 35 35 34 34
21 22 23 23 24 25 25 25 26 25 25 25 25 25 25 24 24 23 23 22 22 22 21 21 21 21 21 21 20 20 20 20 20 20 19 20 20 20 21 22 22 22 22 22 22 23 23 24 24 25 25 27 28 29 30 31 31 32 33 35 36 36 37
21 21 22 22 23 23 24 24 24 24 24 24 23 23 22 22 21 20 19 19 18 18 18 18 18 18 19 19 19 20 20 20 20 20 20 21 21 21 22 23 23 23 23 23 24 24 25 26 26 27 28 29 30 31 32 33 32 32 33 34 35 36 37
20 20 21 21 21 21 21 21 21 21 20 20 19 19 19 18 18 17 17 17 17 18 18 18 18 19 19 20 20 20 21 21 21 22 22 23 23 23 24 24 25 25 26 26 27 28 29 30 31 32 33 34 34 35 36 37 37 36 37 37 38 38 38
20 20 20 19 19 19 18 18 18 17 17 17 17 17 17 17 17 17 17 18 18 18 19 19 19 20 20 21 21 22 22 23 23 24 24 25 25 26 26 27 28 28 29 30 31 33 34 35 36 37 38 39 40 40 41 42 42 42 42 42 42 42 42
19 19 18 18 17 17 16 16 16 16 16 16 16 16 17 17 17 18 18 18 19 19 20 20 20 21 22 22 22 23 23 24 25 26 26 27 28 29 30 31 32 33 34 35 36 38 39 40 41 42 43 44 45 45 46 47 47 47 47 47 47 46 46
18 18 17 17 16 16 16 16 16 16 16 17 17 17 17 17 18 19 19 20 21 21 22 22 22 23 23 24 24 24 25 26 27 28 29 31 32 33 34 35 37 38 39 40 41 42 43 44 45 46 47 48 48 49 50 50 50 51 51 51 50 50 50
17 17 17 17 17 16 16 17 17 17 17 18 19 19 19 20 20 21 21 22 22 23 23 23 24 24 25 25 26 27 28 30 31 32 33 35 36 37 38 39 40 42 42 44 45 46 46 47 48 49 49 50 50 51 51 52 52 52 52 52 52 52 52
17 17 17 18 18 18 18 19 19 19 20 20 21 22 22 22 23 23 23 23 23 23 24 24 25 26 27 28 30 31 32 34 35 36 37 38 39 39 40 41 42 43 44 45 46 47 48 49 49 50 50 51 51 52 52 52 53 52 52 52 52 53 53
17 18 18 19 19 19 20 21 21 22 23 23 24 24 24 24 24 24 24 24 24 24 25 27 28 29 31 32 34 35 36 37 38 39 40 41 42 42 43 43 44 45 46 47 47 48 49 49 50 51 51 52 52 53 53 53 53 52 52 51 52 52 52
19 20 20 21 21 21 22 23 24 24 25 25 24 24 24 24 24 25 25 26 27 27 29 30 32 33 35 36 37 38 40 41 42 43 44 45 45 46 46 47 48 48 49 49 50 50 50 51 52 52 53 53 53 53 52 52 51 51 50 50 50 50 50
Wind_Direction
245 251 257 264 272 280 286 292 294 290 289 289 292 295 298 299 299 298 297 296 298 298 290 279 274 273 270 266 264 263 260 255 254 257 261 264 265 265 265 267 269 272 274 275 276 273 270 266 262 259 260 262 262 263 264 264 263 264 267 268 267 265 263
243 249 255 262 271 277 281 287 288 284 282 283 285 288 291 293 295 295 294 292 291 291 290 282 270 265 263 262 261 260 256 254 254 256 259 263 266 267 267 269 271 274 277 278 278 276 274 272 269 264 258 257 258 262 264 265 264 264 265 265 264 263 264
244 249 254 260 269 276 281 285 286 284 282 281 284 285 286 289 289 288 289 288 286 283 284 283 275 264 256 254 255 256 255 254 254 256 258 260 263 265 266 268 271 274 277 278 278 276 273 273 273 272 269 262 257 257 259 262 264 264 263 263 262 261 261
245 249 253 257 265 275 282 286 287 287 285 284 285 286 287 287 287 287 286 286 284 281 277 275 274 269 258 250 248 251 254 255 256 256 258 260 262 264 265 266 268 271 274 276 276 274 273 272 272 272 273 272 268 263 259 257 260 262 263 263 263 263 262
248 252 258 263 271 280 286 289 290 290 289 289 288 288 288 289 289 289 287 287 286 284 280 274 270 268 264 256 248 246 248 251 254 256 257 258 260 263 265 265 267 269 272 274 275 273 271 270 270 271 272 272 271 269 266 260 258 259 260 260 261 262 264
252 257 264 272 279 284 287 288 288 289 290 290 290 291 292 293 294 293 292 290 288 286 284 281 275 271 268 264 257 250 248 248 250 253 256 258 259 261 263 265 267 268 271 274 274 273 272 270 270 270 270 269 267 266 266 264 261 260 260 261 261 262 263
258 263 268 275 280 284 285 285 286 287 288 288 290 292 294 295 296 296 295 293 291 289 287 284 282 278 275 272 268 262 257 255 254 253 254 256 258 260 262 264 265 266 267 270 272 273 272 271 269 268 269 269 268 266 264 263 262 262 262 262 264 265 266
264 267 270 273 277 281 284 285 288 290 290 290 292 293 294 295 296 297 296 294 292 290 289 286 283 281 279 277 275 270 266 263 262 261 259 258 257 259 261 264 265 265 265 266 268 269 270 270 269 267 267 267 268 267 266 264 263 263 263 262 263 264 266
264 266 268 271 275 281 285 289 291 290 290 291 292 293 294 295 295 296 295 292 290 289 288 287 284 281 280 278 277 275 271 268 266 266 265 263 262 261 261 263 264 265 266 266 266 266 267 268 268 267 266 266 267 267 268 267 266 265 264 264 263 262 262
261 264 265 267 270 275 280 282 283 284 286 288 290 293 295 296 296 295 294 291 290 288 288 287 286 283 281 279 279 278 275 273 270 268 268 268 267 266 265 264 264 265 266 266 267 267 267 268 268 268 267 266 266 266 268 268 269 268 267 265 265 265 263
265 268 268 269 269 271 273 274 276 279 282 286 290 293 296 297 296 295 295 294 292 290 289 289 289 287 284 283 281 280 279 277 274 272 270 270 270 270 270 269 268 267 267 267 267 267 267 268 268 268 268 268 267 266 266 267 269 271 270 267 266 266 267
270 272 271 270 270 270 270 270 273 276 279 284 288 292 293 293 293 293 294 294 294 293 291 291 291 289 288 286 284 282 281 280 279 277 275 273 273 273 272 271 270 270 270 270 269 268 268 267 267 267 268 268 268 267 266 265 266 270 272 271 269 269 269
269 270 271 271 271 271 270 270 273 275 278 282 285 287 288 287 288 290 291 294 296 296 295 294 294 290 286 284 284 283 282 280 279 278 277 276 275 275 275 274 273 272 271 272 272 272 271 271 269 268 268 267 267 267 267 266 264 266 271 273 272 272 271
275 274 275 275 272 271 272 274 276 278 283 287 287 286 286 286 286 287 289 292 295 296 295 296 297 295 291 289 288 285 283 281 278 276 276 276 276 277 277 277 276 274 272 271 270 270 271 271 271 271 270 269 269 269 269 268 266 265 268 272 274 273 274
280 271 272 276 274 273 277 280 282 285 291 295 294 292 292 290 287 286 288 291 292 293 293 294 295 296 297 297 294 290 287 286 284 283 283 282 283 283 283 281 278 274 272 272 270 268 267 267 268 269 269 270 270 270 271 271 270 267 266 269 273 274 274
262 260 266 274 275 274 274 280 284 286 288 292 294 295 295 293 292 292 292 293 293 292 292 292 293 294 295 296 294 293 291 289 289 290 290 289 288 290 293 294 287 277 274 273 271 268 266 265 265 265 266 268 269 270 271 271 271 270 266 266 269 272 274
262 265 268 272 274 273 273 279 282 282 282 282 283 285 287 290 293 295 296 296 295 294 293 292 292 292 292 293 293 293 291 289 290 293 294 293 292 293 296 300 297 289 282 280 278 273 270 267 265 265 265 266 267 267 269 271 271 271 269 266 266 268 271
283 280 276 275 275 274 275 278 280 282 281 277 275 277 281 285 289 292 295 296 297 298 298 296 293 289 287 288 289 289 287 287 288 290 292 292 293 294 296 299 299 297 295 294 291 286 278 272 268 267 266 267 267 268 268 269 270 270 270 268 266 266 268
291 287 282 277 274 274 275 276 277 280 280 278 277 277 277 279 281 285 289 290 292 294 296 296 294 290 288 287 285 284 284 284 285 286 288 290 290 293 297 300 300 300 300 300 299 297 291 282 274 269 268 268 269 270 270 270 271 271 271 270 268 267 268
290 287 283 279 276 277 277 277 279 282 284 283 280 278 280 283 284 285 285 286 288 290 291 291 290 288 287 287 285 284 284 282 281 282 284 286 288 291 294 296 296 296 298 299 298 298 296 293 285 278 274 272 271 271 272 272 272 272 272 273 272 271 271
287 284 281 280 280 281 281 282 285 288 287 283 282 284 287 290 290 289 287 288 290 292 293 291 289 288 287 286 285 285 284 283 282 283 283 284 287 289 291 292 292 292 293 295 297 296 296 295 292 289 285 282 279 278 276 274 273 273 274 273 272 272 271
289 288 287 289 290 291 291 292 293 289 284 283 286 290 291 289 288 287 286 286 288 290 291 291 291 291 290 289 287 285 285 285 284 284 284 285 286 288 290 291 291 292 292 292 292 292 292 293 292 290 287 285 284 283 282 280 280 280 279 277 275 274 273
292 293 294 295 295 295 293 292 288 285 285 287 289 291 289 286 284 283 284 285 285 286 287 289 290 290 289 289 287 286 286 285 285 285 286 287 288 289 290 291 292 293 293 291 289 287 287 288 287 287 285 283 282 282 282 283 285 286 286 285 283 280 279
288 289 290 290 289 288 286 284 283 284 286 287 287 287 286 284 284 284 284 286 286 286 286 287 287 287 287 287 286 286 286 286 286 288 289 291 293 293 293 293 294 294 293 291 290 289 287 286 284 284 283 282 283 282 282 283 286 288 287 286 284 281 279
280 282 283 283 282 281 281 282 283 284 284 283 283 284 284 285 286 287 287 287 287 287 287 286 286 286 287 287 287 288 289 290 291 292 293 295 297 298 299 299 297 296 294 294 294 293 291 289 288 286 285 285 285 283 281 281 283 285 284 283 283 281 280
279 280 281 281 281 281 281 282 283 283 283 284 284 285 286 287 288 289 289 290 289 289 289 289 289 288 289 290 291 292 293 295 296 297 298 299 301 302 304 304 302 300 299 299 299 298 297 295 293 291 289 288 288 286 285 284 284 284 283 283 283 282 281
280 280 280 280 280 281 282 282 283 284 285 285 286 287 288 289 290 290 291 291 291 291 291 291 291 292 292 293 295 296 297 299 300 301 302 304 305 305 306 306 306 305 305 304 303 302 301 300 299 297 296 295 294 292 291 289 288 287 286 284 284 283 282
281 281 280 280 280 280 280 281 282 283 284 285 286 287 289 291 292 293 293 293 294 294 295 295 295 296 296 297 298 299 300 302 303 304 305 305 305 305 306 306 307 308 308 307 306 306 305 304 304 304 305 305 303 301 299 297 296 294 291 288 287 285 284
283 282 282 281 280 280 280 281 282 283 285 286 287 289 290 292 293 294 295 296 297 298 298 298 299 300 300 301 302 302 303 303 304 304 304 305 305 305 305 306 306 307 307 307 306 306 307 308 308 307 307 307 306 305 303 302 301 299 296 294 292 290 288
286 286 285 284 283 283 284 284 285 286 287 288 289 290 291 292 293 295 296 296 297 298 299 300 300 301 301 301 301 301 302 302 302 303 303 303 303 303 303 304 304 304 304 304 305 305 306 306 307 307 306 306 305 305 304 303 302 300 298 296 294 292 291
290 291 290 289 288 288 288 288 289 290 291 291 292 293 293 294 294 294 294 295 295 296 297 297 297 297 297 297 297 298 298 299 299 299 299 300 301 301 302 302 302 302 303 303 303 304 305 305 305 305 305 304 304 303 302 302 301 300 298 296 295 293 291
292 292 293 292 292 292 293 293 294 294 295 294 294 294 294 294 295 294 293 293 293 293 293 293 293 293 293 293 293 294 294 295 295 296 297 298 299 300 301 301 301 302 302 302 302 302 302 302 302 302 302 301 301 300 300 299 298 297 296 295 294 292 290
293 294 294 294 295 295 295 294 294 294 294 294 293 294 294 294 294 294 293 292 292 292 291 290 290 290 290 290 291 292 293 294 295 296 297 298 298 299 299 299 299 299 299 299 299 299 299 299 299 299 299 298 298 297 297 296 295 294 293 291 290 289 287
295 295 295 294 293 293 293 293 293 293 294 294 294 294 293 293 293 292 292 291 291 291 290 290 290 290 291 292 293 294 296 297 298 298 298 299 299 299 299 299 299 299 299 299 299 299 299 299 299 299 299 299 298 298 296 295 293 291 289 287 285 284 283
293 293 293 293 293 294 294 295 295 295 295 295 295 294 293 293 292 291 290 290 290 291 291 292 293 294 295 296 297 298 298 299 299 300 300 300 300 300 300 301 301 301 301 302 302 302 302 302 302 302 301 301 300 299 297 295 292 289 286 284 282 280 279
291 291 292 293 294 295 296 296 296 296 296 296 295 294 293 294 293 293 292 292 292 293 294 295 297 297 298 299 300 300 300 301 301 301 301 301 302 302 303 303 303 304 304 304 304 305 305 305 304 304 304 303 302 300 298 295 292 288 285 283 281 279 278
291 292 293 294 294 294 295 295 294 294 293 293 292 291 291 292 294 294 294 295 295 297 297 298 299 300 301 302 302 303 303 303 303 304 304 304 304 305 305 306 306 306 307 307 308 308 308 308 307 307 306 305 303 301 298 295 291 288 285 282 280 279 277
Height
5798 5798 5798 5798 5797 5797 5796 5796 5797 5797 5796 5796 5795 5794 5793 5793 5792 5791 5791 5790 5790 5790 5789 5789 5788 5787 5787 5787 5787 5787 5788 5788 5789 5789 5789 5789 5789 5789 5789 5789 5788 5788 5788 5788 5788 5788 5787 5787 5787 5787 5787 5786 5786 5785 5785 5784 5784 5783 5783 5782 5782 5782 5782
5796 5796 5796 5796 5796 5796 5795 5795 5795 5795 5795 5794 5794 5793 5792 5791 5790 5790 5789 5788 5788 5788 5788 5787 5787 5786 5786 5785 5785 5786 5786 5786 5787 5787 5787 5787 5787 5787 5787 5787 5787 5786 5786 5786 5786 5786 5785 5785 5785 5785 5785 5785 5784 5783 5783 5782 5782 5781 5781 5780 5780 5780 5779
5795 5795 5795 5795 5795 5795 5794 5794 5794 5794 5793 5793 5792 5791 5790 5790 5789 5788 5787 5787 5786 5786 5786 5785 5785 5785 5784 5784 5784 5784 5784 5784 5785 5785 5786 5786 5785 5785 5785 5785 5785 5784 5784 5784 5784 5784 5784 5783 5783 5782 5782 5783 5782 5782 5781 5780 5780 5779 5779 5778 5778 5777 5777
5794 5794 5794 5794 5794 5794 5794 5794 5793 5792 5792 5792 5791 5790 5789 5789 5788 5787 5786 5785 5784 5784 5784 5783 5783 5782 5782 5782 5782 5782 5782 5782 5782 5783 5783 5784 5784 5784 5783 5783 5783 5782 5782 5782 5781 5781 5781 5781 5781 5780 5780 5780 5780 5780 5779 5779 5778 5777 5777 5776 5775 5775 5775
5793 5793 5793 5793 5794 5794 5793 5793 5792 5791 5791 5790 5790 5789 5788 5787 5786 5786 5785 5784 5783 5782 5782 5781 5781 5780 5779 5779 5779 5779 5779 5779 5780 5780 5781 5781 5781 5781 5781 5781 5781 5780 5779 5779 5779 5779 5779 5778 5778 5778 5777 5777 5777 5777 5777 5777 5776 5775 5775 5774 5773 5773 5772
5792 5792 5792 5792 5792 5792 5792 5792 5791 5790 5789 5789 5788 5788 5786 5785 5785 5784 5783 5782 5782 5781 5780 5780 5779 5778 5777 5777 5777 5777 5776 5776 5776 5777 5777 5778 5778 5778 5778 5778 5778 5778 5777 5776 5776 5776 5776 5776 5775 5775 5774 5774 5774 5774 5774 5774 5774 5773 5772 5771 5771 5770 5770
5791 5791 5791 5791 5790 5790 5790 5789 5789 5788 5788 5787 5787 5786 5785 5784 5783 5783 5782 5781 5780 5779 5779 5778 5777 5776 5775 5775 5774 5774 5774 5773 5773 5774 5774 5774 5775 5775 5775 5775 5774 5774 5774 5773 5773 5773 5773 5772 5772 5772 5771 5771 5771 5771 5771 5771 5771 5770 5769 5768 5768 5767 5767
5790 5790 5789 5789 5788 5788 5788 5788 5787 5786 5786 5785 5785 5784 5783 5782 5781 5781 5780 5779 5778 5777 5777 5776 5775 5774 5773 5772 5772 5772 5772 5771 5771 5771 5771 5771 5771 5771 5771 5771 5771 5771 5771 5770 5770 5770 5769 5769 5769 5769 5769 5768 5768 5767 5767 5767 5767 5767 5766 5766 5765 5765 5764
5788 5788 5787 5787 5786 5786 5786 5786 5785 5785 5784 5783 5783 5782 5781 5780 5779 5779 5778 5778 5776 5775 5774 5774 5773 5772 5771 5770 5769 5769 5769 5769 5768 5768 5768 5768 5768 5768 5768 5768 5768 5768 5767 5767 5767 5766 5766 5765 5765 5765 5765 5765 5764 5764 5764 5764 5763 5763 5762 5762 5762 5762 5762
5786 5787 5786 5786 5785 5785 5785 5784 5784 5783 5782 5781 5781 5780 5779 5778 5777 5776 5776 5775 5775 5773 5772 5771 5771 5770 5769 5768 5767 5766 5766 5766 5765 5765 5765 5764 5764 5765 5765 5765 5764 5764 5764 5764 5763 5763 5762 5762 5761 5761 5761 5761 5761 5761 5760 5760 5760 5759 5758 5758 5758 5758 5757
5785 5786 5786 5785 5785 5784 5783 5782 5781 5780 5779 5778 5778 5777 5777 5776 5775 5774 5773 5772 5772 5771 5770 5769 5769 5768 5767 5766 5765 5765 5764 5763 5763 5762 5762 5761 5761 5761 5761 5761 5761 5760 5760 5760 5760 5759 5759 5758 5758 5757 5757 5756 5756 5756 5756 5756 5756 5755 5753 5754 5754 5753 5753
5784 5784 5784 5784 5783 5782 5781 5780 5779 5778 5776 5775 5775 5775 5775 5775 5774 5772 5771 5770 5769 5768 5767 5767 5767 5766 5765 5764 5763 5763 5762 5761 5760 5759 5759 5758 5758 5757 5757 5757 5757 5756 5756 5756 5755 5755 5754 5754 5754 5753 5753 5752 5752 5752 5751 5752 5753 5751 5747 5748 5749 5749 5748
5782 5782 5782 5781 5780 5778 5778 5778 5777 5775 5774 5773 5772 5772 5772 5772 5772 5770 5769 5768 5766 5765 5764 5764 5764 5763 5762 5761 5760 5760 5760 5759 5758 5757 5756 5755 5754 5754 5754 5753 5753 5752 5752 5752 5751 5750 5750 5749 5749 5748 5748 5748 5747 5747 5746 5747 5749 5748 5743 5742 5743 5743 5742
5782 5782 5780 5778 5777 5776 5775 5775 5774 5773 5772 5771 5770 5769 5769 5769 5769 5768 5766 5765 5764 5763 5762 5761 5761 5760 5758 5758 5757 5756 5756 5756 5755 5754 5753 5752 5752 5751 5751 5750 5749 5748 5747 5747 5747 5746 5745 5744 5744 5743 5743 5742 5742 5742 5741 5742 5744 5745 5742 5738 5737 5737 5736
5781 5779 5778 5775 5774 5774 5773 5773 5772 5771 5769 5768 5767 5767 5766 5766 5765 5765 5764 5763 5762 5761 5760 5759 5758 5757 5755 5754 5754 5753 5752 5752 5751 5751 5750 5749 5749 5748 5748 5746 5745 5744 5743 5742 5742 5741 5740 5739 5739 5738 5738 5737 5737 5736 5736 5736 5738 5740 5740 5736 5733 5732 5731
5778 5776 5775 5773 5773 5773 5772 5771 5770 5769 5767 5766 5765 5764 5763 5763 5762 5761 5760 5759 5759 5758 5758 5757 5755 5754 5752 5751 5750 5749 5749 5748 5748 5747 5747 5746 5745 5744 5743 5742 5740 5739 5738 5737 5736 5735 5735 5734 5733 5733 5732 5732 5732 5731 5730 5730 5731 5733 5734 5734 5730 5728 5727
5775 5773 5772 5771 5771 5771 5770 5769 5768 5767 5766 5765 5764 5763 5762 5760 5759 5758 5757 5756 5755 5755 5755 5754 5753 5751 5750 5748 5747 5746 5746 5745 5744 5743 5742 5742 5741 5740 5739 5738 5736 5734 5734 5733 5731 5730 5729 5728 5728 5727 5727 5727 5726 5726 5725 5724 5724 5725 5726 5728 5728 5725 5722
5772 5770 5769 5769 5769 5769 5768 5767 5767 5766 5764 5763 5763 5761 5760 5759 5758 5756 5755 5754 5753 5752 5752 5751 5750 5749 5748 5746 5745 5744 5743 5742 5741 5740 5739 5738 5737 5736 5735 5734 5732 5730 5729 5728 5726 5725 5723 5722 5722 5722 5722 5721 5721 5720 5720 5719 5718 5718 5718 5721 5722 5720 5718
5769 5768 5768 5768 5768 5767 5766 5765 5764 5763 5762 5761 5760 5758 5758 5757 5756 5755 5754 5752 5751 5750 5749 5748 5747 5746 5745 5744 5742 5741 5741 5740 5738 5737 5736 5734 5734 5733 5731 5730 5728 5726 5725 5724 5722 5720 5718 5717 5716 5716 5716 5716 5715 5714 5714 5714 5712 5711 5711 5713 5714 5715 5713
5767 5767 5767 5766 5766 5765 5764 5763 5761 5760 5759 5757 5756 5756 5755 5754 5753 5752 5751 5750 5748 5747 5747 5746 5744 5743 5742 5741 5739 5738 5738 5737 5736 5734 5733 5731 5730 5729 5728 5727 5725 5723 5722 5720 5719 5717 5715 5713 5712 5712 5712 5711 5710 5710 5709 5708 5706 5705 5705 5705 5706 5707 5707
5766 5765 5765 5764 5763 5762 5761 5760 5758 5757 5756 5755 5754 5753 5752 5751 5750 5749 5748 5747 5745 5743 5743 5742 5740 5739 5738 5737 5736 5735 5734 5733 5732 5731 5730 5728 5727 5726 5724 5723 5721 5720 5718 5716 5715 5713 5712 5710 5709 5708 5707 5706 5705 5705 5703 5702 5701 5700 5699 5699 5699 5700 5700
5764 5763 5762 5761 5760 5759 5758 5757 5756 5755 5754 5753 5751 5750 5749 5748 5747 5746 5745 5744 5742 5740 5738 5737 5736 5735 5734 5733 5732 5731 5730 5729 5728 5727 5725 5724 5723 5722 5720 5719 5717 5716 5714 5713 5712 5710 5708 5707 5706 5705 5703 5701 5700 5699 5697 5696 5695 5694 5693 5692 5692 5692 5692
5761 5760 5759 5758 5757 5756 5755 5754 5754 5753 5752 5750 5748 5746 5746 5745 5744 5743 5741 5740 5738 5737 5735 5733 5732 5731 5730 5729 5728 5727 5726 5725 5723 5722 5721 5720 5719 5717 5716 5715 5713 5711 5710 5709 5708 5707 5705 5704 5702 5701 5699 5698 5696 5695 5693 5691 5690 5689 5688 5687 5686 5686 5685
5759 5757 5756 5755 5754 5754 5753 5752 5751 5750 5748 5747 5745 5743 5742 5741 5740 5739 5737 5736 5734 5733 5731 5730 5729 5728 5727 5725 5724 5723 5722 5721 5720 5718 5717 5716 5714 5713 5712 5711 5709 5707 5706 5705 5703 5702 5701 5700 5699 5697 5696 5694 5692 5691 5689 5688 5686 5685 5683 5682 5682 5680 5679
5757 5756 5755 5754 5753 5752 5751 5749 5748 5747 5745 5744 5742 5740 5739 5737 5736 5734 5733 5732 5731 5729 5728 5727 5726 5724 5723 5722 5721 5720 5718 5717 5716 5715 5713 5712 5711 5709 5708 5707 5705 5703 5702 5700 5699 5698 5697 5696 5695 5693 5692 5690 5689 5687 5686 5684 5683 5681 5679 5678 5677 5676 5675
5755 5754 5753 5752 5750 5749 5747 5746 5745 5743 5742 5740 5739 5737 5735 5734 5732 5731 5730 5728 5727 5726 5725 5724 5722 5721 5720 5719 5717 5716 5715 5714 5712 5711 5710 5709 5707 5706 5704 5703 5702 5700 5699 5697 5696 5694 5693 5692 5691 5690 5688 5686 5685 5684 5682 5680 5679 5677 5675 5673 5673 5672 5671
5752 5751 5749 5748 5747 5745 5744 5743 5741 5740 5739 5737 5736 5734 5732 5731 5729 5728 5726 5725 5724 5723 5722 5721 5719 5718 5717 5715 5714 5713 5712 5710 5709 5708 5707 5705 5704 5703 5701 5700 5698 5697 5696 5694 5693 5691 5690 5689 5688 5686 5684 5683 5681 5679 5677 5676 5675 5673 5670 5669 5668 5667 5666
5748 5747 5746 5745 5744 5742 5741 5739 5738 5737 5735 5734 5732 5731 5729 5728 5726 5725 5724 5722 5721 5720 5719 5718 5716 5715 5714 5712 5711 5710 5709 5708 5706 5705 5704 5703 5701 5700 5698 5697 5695 5694 5692 5691 5690 5688 5687 5685 5684 5682 5681 5679 5677 5675 5673 5671 5670 5668 5666 5665 5663 5662 5661
5745 5744 5743 5741 5740 5739 5737 5736 5735 5733 5732 5731 5729 5728 5727 5725 5724 5722 5721 5720 5719 5717 5716 5715 5714 5712 5711 5710 5708 5707 5706 5705 5703 5702 5701 5699 5698 5697 5695 5693 5692 5690 5689 5687 5686 5684 5683 5681 5680 5678 5677 5675 5673 5671 5669 5667 5666 5664 5662 5660 5659 5657 5655
5741 5740 5739 5738 5737 5735 5734 5733 5732 5730 5729 5728 5727 5726 5724 5723 5722 5720 5719 5718 5716 5715 5714 5712 5711 5710 5708 5707 5706 5705 5703 5702 5701 5699 5698 5696 5695 5693 5692 5690 5688 5687 5685 5684 5682 5680 5679 5677 5676 5674 5672 5671 5669 5667 5664 5662 5661 5659 5658 5656 5654 5652 5650
5738 5737 5736 5735 5734 5733 5731 5730 5729 5727 5726 5725 5724 5723 5722 5721 5719 5718 5717 5715 5714 5712 5711 5710 5709 5707 5706 5705 5703 5702 5700 5699 5697 5696 5694 5693 5691 5690 5688 5687 5685 5683 5682 5680 5678 5677 5675 5673 5671 5669 5668 5666 5664 5662 5660 5657 5655 5654 5652 5650 5648 5646 5644
5735 5734 5733 5732 5731 5730 5729 5728 5726 5725 5724 5722 5721 5720 5719 5718 5716 5715 5714 5713 5711 5710 5709 5707 5706 5705 5703 5702 5700 5699 5697 5696 5694 5693 5691 5690 5688 5686 5685 5683 5681 5679 5678 5676 5674 5672 5670 5668 5666 5664 5662 5660 5658 5656 5654 5652 5649 5647 5645 5643 5641 5639 5637
5733 5732 5731 5730 5729 5728 5726 5725 5724 5723 5721 5720 5719 5718 5716 5715 5714 5712 5711 5710 5709 5707 5706 5704 5703 5702 5700 5699 5697 5696 5694 5693 5691 5689 5688 5686 5684 5682 5681 5679 5677 5675 5673 5671 5669 5667 5665 5663 5661 5659 5657 5654 5652 5650 5648 5645 5643 5640 5638 5636 5633 5631 5629
5730 5729 5728 5727 5726 5725 5724 5723 5722 5720 5719 5717 5716 5715 5714 5712 5711 5709 5708 5707 5705 5704 5702 5701 5700 5698 5697 5695 5694 5692 5690 5689 5687 5685 5683 5681 5679 5677 5675 5673 5671 5669 5667 5665 5663 5660 5658 5656 5654 5652 5649 5647 5645 5643 5640 5638 5635 5633 5630 5628 5625 5623 5621
5728 5727 5726 5725 5724 5723 5721 5720 5719 5718 5716 5715 5713 5711 5710 5709 5708 5706 5704 5703 5702 5701 5699 5697 5696 5694 5693 5691 5689 5688 5686 5684 5682 5680 5678 5676 5674 5672 5670 5667 5665 5663 5661 5658 5656 5653 5651 5648 5646 5644 5641 5639 5637 5634 5632 5630 5627 5625 5622 5619 5617 5615 5612
5726 5725 5724 5723 5722 5720 5719 5717 5716 5714 5713 5711 5710 5708 5706 5705 5703 5702 5701 5699 5698 5697 5695 5693 5692 5690 5688 5686 5684 5683 5681 5678 5676 5674 5672 5670 5668 5665 5663 5661 5658 5656 5653 5651 5648 5646 5643 5641 5638 5636 5633 5631 5628 5626 5623 5621 5618 5616 5613 5611 5609 5606 5604
5724 5723 5721 5720 5719 5718 5716 5715 5713 5711 5709 5708 5706 5704 5703 5701 5699 5698 5696 5695 5694 5692 5691 5689 5687 5685 5683 5681 5679 5677 5675 5673 5670 5668 5666 5663 5661 5659 5656 5654 5651 5649 5646 5643 5641 5638 5635 5632 5630 5627 5624 5622 5619 5617 5614 5612 5610 5607 5605 5603 5601 5599 5597